EHI
0 0 0 0 0 0 0 0 0 0 0 0 0 0 0 0 0 0 0 0 0 0 0 0 0 0 0 0 0 0 0 0 0 0 0 0 0 0 0 0 0 0 0 0
0 0 0 0 0 0 0 0 0 0 0 0 0 0 0 0 0 0 0 0 0 0 0 0 0 0 0 0 0 0 0 0 0 0 0 0 0 0 0 0 0 0 0 0
0 0 0 0 0 0 0 0 0 0 0 0 0 0 0 0 0 0 0 0 0 0 0 0 0 0 0 0 0 0 0 0 0 0 0 0 0 0 0 0 0 0 0 0
0 0 0 0 0 0 0 0 0 0 0 0 0 0 0 0 0 0 0 0 0 0 0 0 0 0 0 0 0 0 0 0 0 0 0 0 0 0 0 0 0 0 0 0
0 0 0 0 0 0 0 0 0 0 0 0 0 0 0 0 0 0 0 0 0 0 0 0 0 0 0 0 0 0 0 0 0 0 0 0 0 0 0 0 0 0 0 0
0 0 0 0 0 0 0 0 0 0 0 0 0 0 0 0 0 0 0 0 0 0 0 0 0 0 0 0 0 0 0 0 0 0 0 0 0 0 0 0 0 0 0 0
0 0 0 0 0 0 0 0 0 0 0 0 0 0 0 0 0 0 0 0 0 0 0 0 0 0 0 0 0 0 0 0 0 0 0 0 0 0 0 0 0 0 0 0
0 0 0 0 0 0 0 0 0 0 0 0 0 0 0 0 0 0 0 0 0 0 0 0 0 0 0 0 0 0 0 0 0 0 0 0 0 0 0 0 0 0 0 0
0 0 0 0 0 0 0 0 0 0 0 0 0 0 0 0 0 0 0 0 0 0 0 0 0 0 0 0 0 0 0 0 0 0 0 0 0 0 0 0 0 0 0 0
0 0 0 0 0 0 0 0 0 0 0 0 0 0 0 0 0 0 0 0 0 0 0 0 0 0 0 0 0 0 0 0 0 0 0 0 0 0 0 0 0 0 0 0
0 0 0 0 0 0 0 0 0 0 0 0 0 0 0 0 0 0 0 0 0 0 0 0 0 0 0 0 0 0 0 0 0 0 0 0 0 0 0 0 0 0 0 0
0 0 0 0 0 0 0 0 0 0 0 0 0 0 0 0 0 0 0 0 0 0 0 0 0 0 0 0 0 0 0 0 0 0 0 0 0 0 0 0 0 0 0 0
0 0 0 0 0 0 0 0 0 0 0 0 0 0 0 0 0 0 0 0 0 0 0 0 0 0 0 0 0 0 0 0 0 0 0 0 0 0 0 0 0 0 0 0
0 0 0 0 0 0 0 0 0 0 0 0 0 0 0 0 0 0 0 0 0 0 0 0 0 0 0 0 0 0 0 0 0 0 0 0 0 0 0 0 0 0 0 0
0 0 0 0 0 0 0 0 0 0 0 0 0 0 0 0 0 0 0 0 0 0 0 0 0 0 0 0 0 0 0 0 0 0 0 0 0 0 0 0 0 0 0 0
0 0 0 0 0 0 0 0 0 0 0 0 0 0 0 0 0 0 0 0 0 0 0 0 0 0 0 0 0 0 0 0 0 0 0 0 0 0 0 0 0 0 0 0
0 0 0 0 0 0 0 0 0 0 0 0 0 0 0 0 0 0 0 0 0 0 0 0 0 0 0 0 0 0 0 0 0 0 0 0 0 0 0 0 0 0 0 0
0 0 0 0 0 0 0 0 0 0 0 0 0 0 0 0 0 0 0 0 0 0 0 0 0 0 0 0 0 0 0 0 0 0 0 0 0 0 0 0 0 0 0 0
0 0 0 0 0 0 0 0 0 0 0 0 0 0 0 0 0 0 0 0 0 0 0 0 0 0 0 0 0 0 0 0 0 0 0 0 0 0 0 0 0 0 0 0
0 0 0 0 0 0 0 0 0 0 0 0 0 0 0 0 0 0 0 0 0 0 0 0 0 0 0 0 0 0 0 0 0 0 0 0 0 0 0 0 0 0 0 0
0 0 0 0 0 0 0 0 0 0 0 0 0 0 0 0 0 0 0 0 0 0 0 0 0 0 0 0 0 0 0 0 0 0 0 0 0 0 0 0 0 0 0 0
0 0 0 0 0 0 0 0 0 0 0 0 0 0 0 0 0 0 0 0 0 0 0 0 0 0 0 0 0 0 0 0 0 0 0 0 0 0 0 0 0 0 0 0
0 0 0 0 0 0 0 0 0 0 0 0 0 0 0 0 0 0 0 0 0 0 0 0 0 0 0 0 0 0 0 0 0 0 0 0 0 0 0 0 0 0 0 0
0 0 0 0 0 0 0 0 0 0 0 0 0 0 0 0 0 0 0 0 0 0 0 0 0 0 0 0 0 0 0 0 0 0 0 0 0 0 0 0 0 0 0 0
0 0 0 0 0 0 0 0 0 0 0 0 0 0 0 0 0 0 0 0 0 0 0 0 0 0 0 0 0 0 0 0 0 0 0 0 0 0 0 0 0 0 0 0
0 0 0 0 0 0 0 0 0 0 0 0 0 0 0 0 0 0 0 0 0 0 0 0 0 0 0 0 0 0 0 0 0 0 0 0 0 0 0 0 0 0 0 0
Wind_Speed
8 9 13 15 15 5 5 7 7 4 3 7 11 13 12 9 10 11 11 11 11 11 10 9 10 9 9 8 8 8 7 6 5 4 3 3 2 2 1 1 1 1 1 2
8 14 12 8 10 9 7 8 7 3 2 5 8 14 13 12 13 12 12 11 11 11 10 9 9 10 10 9 9 8 7 7 6 4 3 2 2 2 1 1 2 2 2 2
13 4 8 10 11 12 12 12 9 5 2 4 7 11 10 9 10 10 10 11 11 11 11 11 11 10 10 9 9 7 8 7 6 4 3 2 2 2 2 2 2 2 3 3
11 5 8 11 13 12 11 8 7 6 6 4 4 7 5 6 7 8 9 10 10 9 10 10 10 10 10 9 8 8 7 6 6 5 4 4 3 3 3 2 2 3 4 4
9 8 10 12 10 11 4 4 6 6 6 6 6 8 6 5 7 8 8 8 7 7 8 9 9 9 9 8 7 6 6 6 5 5 4 4 4 3 2 3 4 4 4 4
4 5 6 6 4 8 8 7 5 3 4 8 10 10 8 5 6 4 5 6 6 6 7 7 7 7 7 6 6 6 6 5 5 5 4 5 5 4 4 4 4 4 4 4
7 7 5 5 7 9 9 8 5 6 7 9 5 9 8 2 3 4 3 3 4 5 6 7 7 7 6 6 6 5 6 5 5 5 5 5 5 5 5 5 5 5 5 5
10 9 11 9 9 11 13 11 8 8 7 5 6 10 4 0 1 2 2 2 3 4 5 5 5 6 6 6 6 6 6 5 4 4 5 5 5 4 4 5 5 6 5 6
9 6 5 6 5 9 11 10 4 1 0 4 7 6 4 3 3 3 3 3 3 4 4 4 4 5 5 5 5 5 5 5 4 4 4 5 5 5 5 6 6 6 6 6
4 4 5 5 4 3 5 7 6 6 7 8 7 7 5 6 5 4 4 3 3 3 3 4 4 4 4 4 4 4 4 4 4 4 3 3 4 5 5 6 7 7 8 7
4 5 5 6 10 11 8 8 7 6 5 6 6 4 2 4 4 3 3 2 2 3 3 3 3 3 3 3 3 3 3 3 3 3 3 4 4 4 5 5 6 7 7 8
4 3 4 5 0 3 8 9 9 7 6 5 5 2 5 2 2 1 2 2 2 2 2 2 2 3 2 2 2 2 2 2 2 3 3 4 4 4 5 6 7 7 8 8
6 5 5 5 4 4 6 5 6 3 3 6 7 4 5 2 2 1 1 2 2 2 2 2 2 2 2 1 1 1 1 1 2 2 3 4 4 5 6 6 7 7 8 8
3 3 6 8 3 7 8 8 8 7 7 8 10 6 4 2 0 1 1 1 2 2 2 1 1 1 1 1 0 0 1 1 2 2 3 4 5 5 6 7 7 7 8 9
2 3 4 3 2 5 7 11 13 12 11 9 9 9 6 3 2 1 1 1 1 1 1 1 0 0 0 1 1 1 2 2 2 3 4 5 5 5 6 6 7 7 8 8
1 2 3 3 3 4 6 10 14 15 14 12 9 10 4 2 1 1 2 2 2 1 1 1 1 0 1 1 2 2 3 3 3 4 4 5 5 5 6 6 7 7 8 8
2 3 4 4 3 3 8 10 13 11 11 11 13 9 3 3 3 3 3 3 2 2 1 1 1 1 1 2 2 3 3 3 3 4 5 5 5 5 6 6 7 7 8 8
3 3 2 2 4 9 1 1 6 8 7 7 6 4 5 4 2 2 2 2 2 1 1 1 1 2 2 2 3 3 3 3 3 4 5 5 5 6 7 7 7 7 7 8
5 4 3 3 5 5 1 0 2 5 5 5 6 5 3 1 2 2 1 1 1 1 1 2 2 2 2 3 3 3 3 3 4 4 5 6 6 7 7 8 8 8 8 8
3 4 3 3 5 5 1 1 1 3 3 0 3 4 3 4 5 2 1 1 1 2 1 1 2 2 2 3 3 3 3 4 4 5 6 6 7 7 8 9 9 8 8 8
4 4 5 5 5 4 1 1 3 5 1 1 1 2 3 3 1 1 1 2 2 2 2 2 2 2 3 3 3 3 4 5 5 6 6 6 7 7 8 8 8 8 8 8
5 5 5 5 6 4 2 3 3 1 2 1 1 0 1 0 1 1 1 1 2 2 3 3 3 3 3 3 3 4 5 5 6 6 6 7 7 7 6 8 8 8 7 8
4 3 2 4 2 2 2 1 1 1 0 1 1 1 1 1 0 0 1 2 2 2 3 3 3 3 4 4 4 5 6 6 6 6 7 7 7 7 6 7 7 7 6 6
2 1 2 3 2 0 1 1 1 1 1 1 1 1 0 0 0 1 1 2 2 3 3 3 3 4 4 5 5 5 6 6 6 7 7 6 6 6 6 5 5 6 6 6
2 3 3 3 1 1 1 1 1 1 2 2 2 1 1 0 1 1 2 2 3 3 4 4 4 4 6 6 6 6 6 6 7 7 6 6 6 6 6 6 6 7 6 6
2 3 3 3 1 2 1 1 1 1 2 2 2 2 2 1 1 2 2 3 3 3 4 4 5 5 6 6 6 6 6 6 6 6 6 5 5 5 5 6 6 7 8 10
Wind_Direction
179 199 207 205 211 241 217 212 219 203 163 222 238 251 249 235 231 232 227 218 214 214 204 194 192 187 184 182 181 180 177 173 170 170 175 181 183 194 205 218 244 265 290 305
183 221 220 209 206 213 212 218 223 203 176 246 264 264 258 243 234 232 229 223 218 213 200 191 189 186 186 183 183 182 182 179 181 183 185 196 194 219 233 238 245 261 276 285
206 199 190 190 193 207 220 227 227 218 194 231 283 265 234 225 224 225 229 229 225 214 204 192 188 187 186 185 186 185 185 184 185 182 172 166 195 212 219 227 242 261 277 275
223 196 183 194 203 205 222 221 221 213 227 233 253 273 227 208 212 217 221 220 218 209 204 194 188 187 187 186 182 185 184 185 185 185 193 199 217 232 247 253 259 268 269 272
206 188 187 201 205 201 196 162 189 210 231 255 222 252 252 198 225 223 213 209 208 200 196 191 188 186 185 180 177 181 181 184 186 195 201 214 229 243 251 256 261 270 270 271
211 196 209 201 182 183 143 133 129 177 222 245 222 228 251 205 224 214 197 197 195 189 184 182 179 179 177 172 173 177 179 184 189 200 210 222 233 243 252 258 265 269 271 270
201 203 194 169 150 167 182 170 174 196 211 232 178 223 247 229 227 230 208 189 178 172 174 173 172 175 172 171 174 180 183 187 193 205 219 230 238 244 249 261 265 272 274 275
192 201 192 192 193 182 195 201 201 210 219 194 183 229 237 271 234 233 209 174 155 157 163 166 167 170 168 171 175 182 189 193 199 213 229 238 241 247 255 261 267 269 272 275
198 195 170 193 202 185 182 210 234 226 273 241 212 228 253 213 202 189 178 160 151 147 148 154 157 161 162 167 175 184 191 199 207 220 229 238 245 252 259 264 266 268 270 275
190 179 172 164 163 199 217 171 175 198 205 228 222 222 208 176 182 171 164 156 137 128 134 140 146 151 154 158 170 183 193 204 214 225 234 246 252 259 265 268 272 273 274 274
185 161 156 181 202 189 174 185 198 196 234 232 229 196 126 176 171 171 162 134 122 124 133 138 141 144 145 148 159 177 193 204 217 233 246 256 262 267 268 270 274 278 279 277
178 170 180 195 156 273 216 200 190 196 202 227 247 173 97 137 147 155 138 120 112 111 120 127 131 133 137 145 157 173 201 220 236 248 258 265 267 270 272 277 282 283 283 282
163 168 161 175 185 188 215 210 206 198 179 201 218 187 114 120 109 96 110 108 105 104 108 118 123 125 126 137 154 166 217 263 269 266 266 271 275 277 279 284 288 288 288 286
169 187 218 214 195 175 197 199 196 194 211 216 229 221 189 199 150 81 87 105 97 98 105 106 110 104 96 105 105 302 303 304 301 291 279 277 280 283 286 288 290 291 291 288
173 201 217 261 257 192 205 202 200 211 220 226 230 230 231 237 226 192 178 152 135 119 99 97 75 63 64 16 353 334 316 315 312 300 292 288 288 289 290 290 292 293 291 289
169 200 196 227 224 213 227 220 214 221 226 234 244 246 251 259 245 216 211 192 201 217 259 287 305 315 311 323 326 325 318 317 308 299 297 302 299 295 294 295 295 295 295 294
173 173 196 215 210 201 233 223 216 217 220 225 233 237 204 228 240 237 220 203 206 222 253 270 286 307 317 318 316 310 310 314 310 306 306 306 306 304 303 301 298 295 297 297
174 175 196 179 180 222 217 76 214 217 226 230 240 239 225 237 250 257 244 227 237 260 277 286 300 313 320 325 328 323 318 315 310 309 311 312 311 307 306 303 300 300 299 296
197 179 183 197 219 247 235 188 192 204 227 234 233 238 239 221 229 225 193 224 279 297 297 297 303 306 309 317 326 321 314 314 310 312 312 311 309 306 305 302 300 301 298 297
182 192 196 204 223 229 248 53 271 195 217 182 224 231 219 200 227 205 67 355 345 345 339 338 332 319 314 325 322 311 307 306 307 308 307 305 304 301 300 299 300 299 295 295
170 184 206 216 232 248 7 343 187 206 202 62 211 216 202 214 278 29 20 5 2 355 349 346 341 338 336 330 319 307 305 306 310 307 304 303 302 299 298 298 299 300 298 296
188 185 194 204 221 232 80 150 193 317 36 69 97 127 179 152 65 71 41 17 10 3 355 349 345 341 335 328 320 312 314 317 314 308 303 303 302 302 300 300 301 300 298 295
212 217 207 209 226 35 142 181 312 356 73 19 18 27 119 133 68 357 355 353 353 349 345 341 339 335 332 330 321 310 315 317 313 308 305 306 306 304 303 301 301 301 296 293
211 260 210 214 223 232 163 57 28 35 58 57 40 28 61 157 278 314 330 333 334 336 333 329 328 327 326 328 322 311 311 310 307 306 308 308 306 306 306 302 298 298 295 294
190 183 207 226 251 274 238 309 0 53 55 46 28 10 360 19 300 304 310 315 317 320 323 320 314 313 314 317 315 314 313 310 305 305 306 306 302 301 301 299 297 295 289 291
185 201 215 232 211 233 254 31 2 28 11 11 4 358 358 337 307 309 307 311 312 314 318 317 315 311 310 312 311 314 315 307 302 302 303 302 301 301 299 301 303 298 292 302